EDT,Max TemperatureF,Mean TemperatureF,Min TemperatureF,Max Dew PointF,MeanDew PointF,Min DewpointF,Max Humidity, Mean Humidity, Min Humidity, Max Sea Level PressureIn, Mean Sea Level PressureIn, Min Sea Level PressureIn, Max VisibilityMiles, Mean VisibilityMiles, Min VisibilityMiles, Max Wind SpeedMPH, Mean Wind SpeedMPH, Max Gust SpeedMPH,PrecipitationIn, CloudCover, Events, WindDirDegrees
2013-3-1,34,31,27,32,28,21,96,84,72,30.08,29.99,29.92,10,8,5,16,9,18,T,8,Snow,3
2013-3-2,28,27,25,21,19,18,81,75,68,30.10,30.08,30.05,10,8,2,14,9,17,T,8,Snow,348
2013-3-3,31,27,23,20,17,15,81,67,53,30.11,30.08,30.03,10,9,6,20,9,24,T,8,Snow,319
2013-3-4,40,29,17,29,19,14,84,59,34,30.19,30.12,30.06,10,9,2,13,4,16,0.09,4,Rain-Snow,146
2013-3-5,37,34,31,32,30,26,100,82,64,30.06,29.79,29.61,10,6,1,22,12,28,0.45,8,Rain-Snow,66
2013-3-6,33,31,28,29,26,25,100,88,75,30.26,30.02,29.63,7,5,0,23,13,29,0.21,8,Fog-Snow,331
2013-3-7,39,35,30,30,27,23,92,78,64,30.40,30.34,30.25,10,7,3,13,7,17,0.00,7,,308
2013-3-8,40,32,23,25,22,18,81,66,50,30.51,30.45,30.40,10,10,8,10,5,15,0.00,0,,16
2013-3-9,52,40,28,36,30,23,85,69,52,30.41,30.26,30.04,10,10,7,16,10,21,0.00,4,,127
2013-3-10,66,57,48,43,34,31,55,43,30,30.03,29.95,29.84,10,10,10,30,14,41,0.02,7,Rain,177
2013-3-11,56,46,36,50,43,32,100,81,61,29.85,29.72,29.60,10,8,2,38,18,45,0.89,8,Rain,203
2013-3-12,40,36,31,32,29,28,89,77,64,30.04,29.96,29.86,10,8,1,28,15,36,0.01,8,Snow,257
2013-3-13,32,29,25,30,23,18,92,78,63,30.32,30.12,29.98,10,7,2,25,15,32,0.02,7,Snow,281
2013-3-14,42,31,20,22,19,15,84,63,41,30.36,30.29,30.18,10,10,10,16,9,20,0.00,2,,257
2013-3-15,49,40,30,41,33,23,92,76,60,30.17,29.99,29.83,10,9,5,15,8,20,0.04,7,,230
2013-3-16,49,41,33,45,38,30,93,87,80,30.06,29.81,29.63,8,4,1,21,10,25,T,7,,331
2013-3-17,37,34,30,29,26,23,85,75,64,30.20,30.12,30.02,10,10,10,17,11,20,0.01,8,,47
2013-3-18,48,40,32,46,36,27,100,88,75,30.03,29.77,29.60,10,6,1,28,15,37,0.64,8,Rain,153
2013-3-19,39,33,26,34,21,16,85,63,40,30.09,29.96,29.81,10,10,5,39,21,47,T,5,Rain,264
2013-3-20,33,28,22,19,15,9,75,61,46,30.09,30.03,29.98,10,10,9,25,15,31,0.00,5,,277
2013-3-21,31,25,18,18,14,11,73,61,49,30.04,30.00,29.93,10,9,2,18,10,23,T,6,Snow,289
2013-3-22,42,31,19,19,17,14,84,61,38,30.09,30.05,30.02,10,10,10,15,6,20,0.00,1,,269
2013-3-23,47,38,28,25,21,17,75,55,34,30.09,30.04,29.96,10,10,9,13,6,17,0.00,4,,9
2013-3-24,34,32,29,30,27,23,100,82,64,29.94,29.66,29.45,10,5,0,23,13,30,0.58,8,Fog-Snow,56
2013-3-25,33,31,28,30,29,27,100,91,82,29.94,29.64,29.42,8,2,0,22,13,28,0.15,8,Fog-Snow,329
2013-3-26,38,34,30,30,28,26,92,78,64,30.23,30.06,29.92,10,7,2,21,12,40,0.04,8,Snow,303
2013-3-27,44,37,29,29,26,21,85,65,45,30.32,30.27,30.20,10,10,9,21,13,26,0.00,7,,285
2013-3-28,47,38,28,28,25,22,78,62,45,30.37,30.33,30.30,10,10,10,16,8,21,0.00,1,,295
2013-3-29,54,42,29,31,28,24,78,61,44,30.34,30.29,30.23,10,10,8,15,4,20,0.00,2,,308
2013-3-30,57,43,29,32,28,23,85,57,29,30.27,30.15,29.96,10,9,6,14,5,18,0.00,4,,183
2013-3-31,58,51,44,45,39,31,82,67,51,29.94,29.82,29.76,10,9,6,29,12,36,0.01,6,Rain,232